"datetime","temp","dp","rain_mm","uv","solar","mb","wind_mph","gust_mph","windchill","rh"
"2018-01-18 00:00:00",7.1,4.9,0.0,0.0,0,997.5,4,7,4.8,86
"2018-01-18 00:01:00",7.1,4.9,0.0,0.0,0,997.6,4,7,4.9,86
"2018-01-18 00:02:00",7.1,4.9,0.0,0.0,0,997.4,4,8,4.7,86
"2018-01-18 00:03:00",7.2,5.0,0.0,0.0,0,997.5,3,8,4.8,86
"2018-01-18 00:04:00",7.2,5.0,0.0,0.0,0,997.4,6,13,3.7,86
"2018-01-18 00:05:00",7.2,5.0,0.0,0.0,0,997.4,2,3,"",86
"2018-01-18 00:06:00",7.3,5.1,0.0,0.0,0,997.5,4,6,5.5,86
"2018-01-18 00:07:00",7.3,5.1,0.0,0.0,0,997.4,4,7,5.2,86
"2018-01-18 00:08:00",7.3,5.1,0.0,0.0,0,997.2,4,8,4.9,86
"2018-01-18 00:09:00",7.3,5.1,0.0,0.0,0,997.2,3,5,5.8,86
"2018-01-18 00:10:00",7.3,5.1,0.0,0.0,0,997.2,4,10,4.4,86
"2018-01-18 00:11:00",7.4,5.2,0.0,0.0,0,996.9,6,9,4.8,86
"2018-01-18 00:12:00",7.4,5.2,0.0,0.0,0,997.0,4,9,4.8,86
"2018-01-18 00:13:00",7.5,5.3,0.0,0.0,0,996.8,4,7,5.4,86
"2018-01-18 00:14:00",7.5,5.3,0.0,0.0,0,996.8,3,6,5.7,86
"2018-01-18 00:15:00",7.6,5.4,0.0,0.0,0,996.9,4,11,4.6,86
"2018-01-18 00:16:00",7.6,5.4,0.0,0.0,0,996.7,4,6,5.8,86
"2018-01-18 00:17:00",7.6,5.4,0.0,0.0,0,996.8,2,4,6.6,86
"2018-01-18 00:18:00",7.6,5.4,0.0,0.0,0,996.8,4,11,4.6,86
"2018-01-18 00:19:00",7.6,5.4,0.0,0.0,0,996.7,2,3,"",86
"2018-01-18 00:20:00",7.7,5.5,0.0,0.0,0,996.8,2,5,6.3,86
"2018-01-18 00:21:00",7.7,5.5,0.0,0.0,0,996.7,3,6,6.0,86
"2018-01-18 00:22:00",7.7,5.5,0.0,0.0,0,996.6,4,8,5.4,86
"2018-01-18 00:23:00",7.7,5.5,0.0,0.0,0,996.5,3,7,5.7,86
"2018-01-18 00:24:00",7.7,5.5,0.0,0.0,0,996.5,5,9,5.1,86
"2018-01-18 00:25:00",7.8,5.6,0.0,0.0,0,996.5,4,9,5.3,86
"2018-01-18 00:26:00",7.8,5.6,0.0,0.0,0,996.2,5,10,5.1,86
"2018-01-18 00:27:00",7.8,5.6,0.0,0.0,0,996.5,3,7,5.8,86
"2018-01-18 00:28:00",7.8,5.6,0.0,0.0,0,996.4,7,23,3.2,86
"2018-01-18 00:29:00",7.9,5.7,0.0,0.0,0,996.4,5,9,5.3,86
"2018-01-18 00:30:00",7.9,5.7,0.0,0.0,0,996.4,3,5,6.5,86
"2018-01-18 00:31:00",7.9,5.7,0.0,0.0,0,996.3,3,5,6.5,86
"2018-01-18 00:32:00",7.9,5.7,0.0,0.0,0,996.2,3,6,6.2,86
"2018-01-18 00:33:00",8.0,5.8,0.0,0.0,0,996.3,3,5,6.5,86
"2018-01-18 00:34:00",8.0,5.8,0.0,0.0,0,996.2,4,6,6.3,86
"2018-01-18 00:35:00",8.0,5.8,0.0,0.0,0,996.2,3,4,7.0,86
"2018-01-18 00:36:00",8.1,5.9,0.0,0.0,0,996.1,5,10,5.4,86
"2018-01-18 00:37:00",8.1,5.9,0.0,0.0,0,996.0,5,11,5.2,86
"2018-01-18 00:38:00",8.1,5.9,0.0,0.0,0,995.9,4,7,6.1,86
"2018-01-18 00:39:00",8.1,5.9,0.0,0.0,0,996.0,4,7,6.1,86
"2018-01-18 00:40:00",8.1,5.9,0.0,0.0,0,996.0,3,11,5.2,86
"2018-01-18 00:41:00",8.1,5.9,0.0,0.0,0,996.1,8,13,4.9,86
"2018-01-18 00:42:00",8.2,6.0,0.0,0.0,0,996.0,5,12,5.1,86
"2018-01-18 00:43:00",8.2,6.0,0.0,0.0,0,995.9,3,6,6.5,86
"2018-01-18 00:44:00",8.2,6.0,0.0,0.0,0,995.8,3,7,6.3,86
"2018-01-18 00:45:00",8.2,6.0,0.0,0.0,0,995.7,3,6,6.5,86
"2018-01-18 00:46:00",8.2,6.0,0.0,0.0,0,995.7,5,8,6.0,86
"2018-01-18 00:47:00",8.3,6.1,0.0,0.0,0,995.6,7,15,4.8,86
"2018-01-18 00:48:00",8.3,6.1,0.0,0.0,0,995.4,4,7,6.4,86
"2018-01-18 00:49:00",8.3,6.1,0.0,0.0,0,995.5,4,7,6.4,86
"2018-01-18 00:50:00",8.3,6.1,0.0,0.0,0,995.5,5,10,5.7,86
"2018-01-18 00:51:00",8.3,6.1,0.0,0.0,0,995.3,5,10,5.7,86
"2018-01-18 00:52:00",8.4,6.2,0.0,0.0,0,995.4,6,10,5.7,86
"2018-01-18 00:53:00",8.4,6.2,0.0,0.0,0,995.4,3,6,6.8,86
"2018-01-18 00:54:00",8.4,6.2,0.0,0.0,0,995.3,3,5,7.1,86
"2018-01-18 00:55:00",8.4,6.2,0.0,0.0,0,995.4,2,3,"",86
"2018-01-18 00:56:00",8.4,6.2,0.0,0.0,0,995.3,3,7,6.5,86
"2018-01-18 00:57:00",8.4,6.2,0.0,0.0,0,995.2,3,8,6.2,86
"2018-01-18 00:58:00",8.4,6.2,0.0,0.0,0,995.2,3,6,6.8,86
"2018-01-18 00:59:00",8.4,6.2,0.0,0.0,0,995.1,3,5,7.1,86
"2018-01-18 01:00:00",8.4,6.2,0.0,0.0,0,995.1,3,5,7.1,86
"2018-01-18 01:01:00",8.4,6.2,0.0,0.0,0,995.1,5,14,5.1,86
"2018-01-18 01:02:00",8.5,6.3,0.0,0.0,0,995.0,7,11,5.7,86
"2018-01-18 01:03:00",8.5,6.3,0.0,0.0,0,995.0,4,6,6.9,86
"2018-01-18 01:04:00",8.5,6.3,0.0,0.0,0,994.7,5,12,5.6,86
"2018-01-18 01:05:00",8.5,6.3,0.0,0.0,0,994.9,6,12,5.6,86
"2018-01-18 01:06:00",8.5,6.3,0.0,0.0,0,994.9,3,5,7.2,86
"2018-01-18 01:07:00",8.6,6.4,0.0,0.0,0,994.8,3,4,7.6,86
"2018-01-18 01:08:00",8.6,6.4,0.0,0.0,0,994.8,4,11,5.9,86
"2018-01-18 01:09:00",8.6,6.4,0.0,0.0,0,994.8,6,12,5.7,86
"2018-01-18 01:10:00",8.6,6.4,0.0,0.0,0,994.8,5,11,5.9,86
"2018-01-18 01:11:00",8.6,6.4,0.0,0.0,0,994.7,3,6,7.0,86
"2018-01-18 01:12:00",8.6,6.4,0.0,0.0,0,994.7,3,10,6.0,86
"2018-01-18 01:13:00",8.6,6.4,0.0,0.0,0,994.6,3,5,7.4,86
"2018-01-18 01:14:00",8.6,6.4,0.0,0.0,0,994.5,3,8,6.5,86
"2018-01-18 01:15:00",8.7,6.5,0.0,0.0,0,994.5,2,3,"",86
"2018-01-18 01:16:00",8.7,6.5,0.0,0.0,0,994.5,4,7,6.7,86
"2018-01-18 01:17:00",8.7,6.5,0.0,0.0,0,994.5,5,10,6.2,86
"2018-01-18 01:18:00",8.7,6.5,0.0,0.0,0,994.4,2,4,7.9,86
"2018-01-18 01:19:00",8.7,6.5,0.0,0.0,0,994.5,4,8,6.6,86
"2018-01-18 01:20:00",8.7,6.5,0.0,0.0,0,994.4,4,9,6.4,86
"2018-01-18 01:21:00",8.7,6.5,0.0,0.0,0,994.4,7,15,5.3,86
"2018-01-18 01:22:00",8.7,6.5,0.0,0.0,0,994.4,4,9,6.4,86
"2018-01-18 01:23:00",8.7,6.5,0.0,0.0,0,994.3,5,7,6.9,86
"2018-01-18 01:24:00",8.7,6.5,0.0,0.0,0,994.3,3,6,7.1,86
"2018-01-18 01:25:00",8.7,6.5,0.0,0.0,0,994.3,7,14,5.5,86
"2018-01-18 01:26:00",8.8,6.6,0.0,0.0,0,994.2,5,10,6.2,86
"2018-01-18 01:27:00",8.8,6.6,0.0,0.0,0,994.2,3,4,8.0,86
"2018-01-18 01:28:00",8.8,6.6,0.0,0.0,0,994.2,2,5,7.6,86
"2018-01-18 01:29:00",8.8,6.6,0.0,0.0,0,993.9,4,7,7.0,86
"2018-01-18 01:30:00",8.8,6.6,0.0,0.0,0,994.1,6,12,5.9,86
"2018-01-18 01:31:00",8.8,6.6,0.0,0.0,0,994.2,2,7,7.0,86
"2018-01-18 01:32:00",8.8,6.6,0.0,0.0,0,994.1,6,11,6.1,86
"2018-01-18 01:33:00",8.8,6.6,0.0,0.0,0,994.2,3,10,6.3,86
"2018-01-18 01:34:00",8.8,6.6,0.0,0.0,0,993.9,5,9,6.5,86
"2018-01-18 01:35:00",8.8,6.6,0.0,0.0,0,994.0,4,9,6.5,86
"2018-01-18 01:36:00",8.8,6.6,0.0,0.0,0,993.9,5,11,6.1,86
"2018-01-18 01:37:00",8.8,6.6,0.0,0.0,0,993.8,5,9,6.5,86
"2018-01-18 01:38:00",8.9,6.7,0.0,0.0,0,994.0,5,10,6.3,86
"2018-01-18 01:39:00",8.9,6.7,0.0,0.0,0,994.0,4,9,6.6,86
"2018-01-18 01:40:00",8.9,6.7,0.0,0.0,0,993.9,3,5,7.7,86
"2018-01-18 01:41:00",8.9,6.7,0.0,0.0,0,993.8,4,7,7.1,86
"2018-01-18 01:42:00",8.9,6.7,0.0,0.0,0,993.9,3,5,7.7,86
"2018-01-18 01:43:00",8.9,6.7,0.0,0.0,0,993.8,5,9,6.6,86
"2018-01-18 01:44:00",8.9,6.7,0.0,0.0,0,993.8,5,10,6.4,86
"2018-01-18 01:45:00",8.9,6.7,0.0,0.0,0,993.6,4,8,6.8,86
"2018-01-18 01:46:00",8.9,6.7,0.0,0.0,0,993.7,3,8,6.8,86
"2018-01-18 01:47:00",8.9,6.7,0.0,0.0,0,993.7,4,7,7.1,86
"2018-01-18 01:48:00",8.9,6.7,0.0,0.0,0,993.8,4,6,7.4,86
"2018-01-18 01:49:00",8.9,6.7,0.0,0.0,0,993.7,2,4,8.1,86
"2018-01-18 01:50:00",8.9,6.7,0.0,0.0,0,993.7,4,6,7.4,86
"2018-01-18 01:51:00",8.9,6.7,0.0,0.0,0,993.8,4,7,7.1,86
"2018-01-18 01:52:00",9.0,6.8,0.0,0.0,0,993.7,6,9,6.7,86
"2018-01-18 01:53:00",9.0,6.8,0.0,0.0,0,993.9,4,6,7.5,86
"2018-01-18 01:54:00",9.0,6.8,0.0,0.0,0,993.8,3,5,7.8,86
"2018-01-18 01:55:00",9.0,6.8,0.0,0.0,0,993.8,3,4,8.2,86
"2018-01-18 01:56:00",9.0,6.8,0.0,0.0,0,993.8,3,9,6.7,86
"2018-01-18 01:57:00",9.0,6.8,0.0,0.0,0,993.8,3,5,7.8,86
"2018-01-18 01:58:00",9.0,6.8,0.0,0.0,0,993.9,2,3,"",86
"2018-01-18 01:59:00",9.0,6.8,0.0,0.0,0,993.8,3,6,7.5,86
"2018-01-18 02:00:00",9.0,6.8,0.0,0.0,0,993.8,7,18,5.5,86
"2018-01-18 02:01:00",9.1,6.9,0.0,0.0,0,993.8,4,7,7.2,86
"2018-01-18 02:02:00",9.0,6.8,0.0,0.0,0,993.8,2,3,"",86
"2018-01-18 02:03:00",9.1,6.9,0.0,0.0,0,993.9,3,9,6.9,86
"2018-01-18 02:04:00",9.1,6.9,0.0,0.0,0,993.8,2,7,7.3,86
"2018-01-18 02:05:00",9.1,6.9,0.0,0.0,0,993.9,6,11,6.5,86
"2018-01-18 02:06:00",9.1,6.9,0.0,0.0,0,993.8,2,3,"",86
"2018-01-18 02:07:00",9.1,6.9,0.0,0.0,0,993.9,5,9,6.7,86
"2018-01-18 02:08:00",9.1,6.9,0.0,0.0,0,993.8,2,5,7.9,86
"2018-01-18 02:09:00",9.1,6.9,0.0,0.0,0,993.8,3,4,8.3,86
"2018-01-18 02:10:00",9.1,6.9,0.0,0.0,0,993.8,3,6,7.6,86
"2018-01-18 02:11:00",9.1,6.9,0.0,0.0,0,993.5,4,9,6.9,86
"2018-01-18 02:12:00",9.0,6.8,0.0,0.0,0,993.7,3,4,8.2,86
"2018-01-18 02:13:00",9.0,6.8,0.0,0.0,0,993.8,7,14,5.9,86
"2018-01-18 02:14:00",9.1,6.9,0.0,0.0,0,993.5,3,7,7.2,86
"2018-01-18 02:15:00",9.1,6.9,0.0,0.0,0,993.6,3,10,6.7,86
"2018-01-18 02:16:00",9.1,6.9,0.0,0.0,0,993.5,3,8,7.1,86
"2018-01-18 02:17:00",9.1,6.9,0.0,0.0,0,993.4,4,8,7.1,86
"2018-01-18 02:18:00",9.1,6.9,0.0,0.0,0,993.6,3,6,7.6,86
"2018-01-18 02:19:00",9.1,6.9,0.0,0.0,0,993.3,4,9,6.9,86
"2018-01-18 02:20:00",9.1,6.9,0.0,0.0,0,993.4,3,6,7.6,86
"2018-01-18 02:21:00",9.1,6.9,0.0,0.0,0,993.4,2,4,8.3,86
"2018-01-18 02:22:00",9.1,6.9,0.0,0.0,0,993.4,3,9,6.9,86
"2018-01-18 02:23:00",9.1,6.9,0.0,0.0,0,993.3,4,9,6.9,86
"2018-01-18 02:24:00",9.1,6.9,0.0,0.0,0,993.4,3,7,7.3,86
"2018-01-18 02:25:00",9.1,6.9,0.0,0.0,0,993.4,4,8,7.1,86
"2018-01-18 02:26:00",9.1,6.9,0.0,0.0,0,993.3,3,6,7.6,86
"2018-01-18 02:27:00",9.1,6.9,0.0,0.0,0,993.3,2,3,"",86
"2018-01-18 02:28:00",9.1,6.9,0.0,0.0,0,993.1,4,7,7.3,86
"2018-01-18 02:29:00",9.1,6.9,0.0,0.0,0,993.3,2,3,"",86
"2018-01-18 02:30:00",9.1,6.9,0.0,0.0,0,993.5,4,8,7.1,86
"2018-01-18 02:31:00",9.1,6.9,0.0,0.0,0,993.4,4,11,6.5,86
"2018-01-18 02:32:00",9.1,6.9,0.0,0.0,0,993.5,4,6,7.6,86
"2018-01-18 02:33:00",9.1,6.9,0.0,0.0,0,993.4,4,8,7.1,86
"2018-01-18 02:34:00",9.1,6.9,0.0,0.0,0,993.2,4,8,7.1,86
"2018-01-18 02:35:00",9.1,6.9,0.0,0.0,0,993.4,6,11,6.5,86
"2018-01-18 02:36:00",9.2,7.0,0.0,0.0,0,993.4,4,9,6.9,86
"2018-01-18 02:37:00",9.1,6.9,0.0,0.0,0,993.2,3,5,8.1,86
"2018-01-18 02:38:00",9.2,7.0,0.0,0.0,0,993.2,3,6,7.7,86
"2018-01-18 02:39:00",9.2,7.0,0.0,0.0,0,993.2,2,4,8.4,86
"2018-01-18 02:40:00",9.2,7.0,0.0,0.0,0,993.2,2,5,8.1,86
"2018-01-18 02:41:00",9.2,7.0,0.0,0.0,0,993.2,5,15,6.0,86
"2018-01-18 02:42:00",9.2,7.0,0.0,0.0,0,993.2,4,8,7.2,86
"2018-01-18 02:43:00",9.2,7.0,0.0,0.0,0,993.0,4,8,7.2,86
"2018-01-18 02:44:00",9.2,7.0,0.0,0.0,0,993.1,3,5,8.1,86
"2018-01-18 02:45:00",9.2,7.0,0.0,0.0,0,992.9,4,7,7.5,86
"2018-01-18 02:46:00",9.2,7.0,0.0,0.0,0,992.9,3,7,7.5,86
"2018-01-18 02:47:00",9.2,7.0,0.0,0.0,0,992.9,4,7,7.5,86
"2018-01-18 02:48:00",9.2,7.0,0.0,0.0,0,993.0,5,9,7.0,86
"2018-01-18 02:49:00",9.2,7.0,0.0,0.0,0,992.8,3,5,8.1,86
"2018-01-18 02:50:00",9.1,6.9,0.0,0.0,0,993.0,2,5,8.1,86
"2018-01-18 02:51:00",9.1,6.9,0.0,0.0,0,992.9,2,5,7.9,86
"2018-01-18 02:52:00",9.1,6.9,0.0,0.0,0,992.9,2,5,7.9,86
"2018-01-18 02:53:00",9.1,6.9,0.0,0.0,0,992.9,3,8,7.1,86
"2018-01-18 02:54:00",9.1,6.9,0.0,0.0,0,992.8,3,6,7.6,86
"2018-01-18 02:55:00",9.1,6.9,0.0,0.0,0,992.9,1,7,7.3,86
"2018-01-18 02:56:00",9.1,6.9,0.0,0.0,0,992.6,5,10,6.7,86
"2018-01-18 02:57:00",9.1,6.9,0.0,0.0,0,992.7,2,3,"",86
"2018-01-18 02:58:00",9.1,6.9,0.0,0.0,0,992.8,4,7,7.3,86
"2018-01-18 02:59:00",9.1,6.9,0.0,0.0,0,992.7,4,7,7.3,86
"2018-01-18 03:00:00",9.1,6.9,0.0,0.0,0,992.7,3,4,8.3,86
"2018-01-18 03:01:00",9.1,6.9,0.0,0.0,0,992.7,5,13,6.1,86
"2018-01-18 03:02:00",9.1,6.9,0.0,0.0,0,992.6,5,10,6.7,86
"2018-01-18 03:03:00",9.1,6.9,0.0,0.0,0,992.7,3,8,7.1,86
"2018-01-18 03:04:00",9.1,6.9,0.0,0.0,0,992.8,3,6,7.6,86
"2018-01-18 03:05:00",9.1,6.9,0.0,0.0,0,992.8,3,4,8.3,86
"2018-01-18 03:06:00",9.1,6.9,0.0,0.0,0,992.7,4,6,7.6,86
"2018-01-18 03:07:00",9.1,6.9,0.0,0.0,0,992.7,3,7,7.3,86
"2018-01-18 03:08:00",9.1,6.9,0.0,0.0,0,992.7,4,7,7.3,86
"2018-01-18 03:09:00",9.1,6.9,0.0,0.0,0,992.7,4,8,7.1,86
"2018-01-18 03:10:00",9.1,6.9,0.0,0.0,0,992.7,3,8,7.1,86
"2018-01-18 03:11:00",9.1,6.9,0.0,0.0,0,992.7,2,5,7.9,86
"2018-01-18 03:12:00",9.1,6.9,0.0,0.0,0,992.6,4,7,7.3,86
"2018-01-18 03:13:00",9.2,7.0,0.0,0.0,0,992.6,4,9,7.0,86
"2018-01-18 03:14:00",9.2,7.0,0.0,0.0,0,992.6,5,10,6.8,86
"2018-01-18 03:15:00",9.2,7.0,0.0,0.0,0,992.5,4,7,7.5,86
"2018-01-18 03:16:00",9.2,7.0,0.0,0.0,0,992.6,4,7,7.5,86
"2018-01-18 03:17:00",9.2,7.0,0.0,0.0,0,992.7,3,6,7.7,86
"2018-01-18 03:18:00",9.2,7.0,0.0,0.0,0,992.7,3,4,8.4,86
"2018-01-18 03:19:00",9.2,7.0,0.0,0.0,0,992.7,3,6,7.7,86
"2018-01-18 03:20:00",9.2,7.0,0.0,0.0,0,992.6,6,17,5.7,86
"2018-01-18 03:21:00",9.2,7.0,0.0,0.0,0,992.6,3,6,7.7,86
"2018-01-18 03:22:00",9.2,7.0,0.0,0.0,0,992.6,2,4,8.4,86
"2018-01-18 03:23:00",9.2,7.0,0.0,0.0,0,992.6,3,7,7.5,86
"2018-01-18 03:24:00",9.2,7.0,0.0,0.0,0,992.6,5,9,7.0,86
"2018-01-18 03:25:00",9.3,7.1,0.0,0.0,0,992.6,4,7,7.5,86
"2018-01-18 03:26:00",9.3,7.1,0.0,0.0,0,992.5,3,7,7.5,86
"2018-01-18 03:27:00",9.2,7.0,0.0,0.0,0,992.5,2,4,8.6,86
"2018-01-18 03:28:00",9.3,7.1,0.0,0.0,0,992.5,5,14,6.3,86
"2018-01-18 03:29:00",9.3,7.1,0.0,0.0,0,992.3,6,11,6.7,86
"2018-01-18 03:30:00",9.2,7.0,0.0,0.0,0,992.5,4,7,7.5,86
"2018-01-18 03:31:00",9.3,7.1,0.0,0.0,0,992.5,4,7,7.5,86
"2018-01-18 03:32:00",9.3,7.1,0.0,0.0,0,992.6,4,7,7.5,86
"2018-01-18 03:33:00",9.2,7.0,0.0,0.0,0,992.5,4,8,7.2,86
"2018-01-18 03:34:00",9.2,7.0,0.0,0.0,0,992.5,6,11,6.6,86
"2018-01-18 03:35:00",9.2,7.0,0.0,0.0,0,992.5,4,6,7.7,86
"2018-01-18 03:36:00",9.2,7.0,0.0,0.0,0,992.6,3,5,8.1,86
"2018-01-18 03:37:00",9.2,7.0,0.0,0.0,0,992.6,3,6,7.7,86
"2018-01-18 03:38:00",9.2,7.0,0.0,0.0,0,992.5,5,8,7.2,86
"2018-01-18 03:39:00",9.2,6.8,0.0,0.0,0,992.5,4,8,7.2,85
"2018-01-18 03:40:00",9.2,6.8,0.0,0.0,0,992.5,5,10,6.8,85
"2018-01-18 03:41:00",9.2,6.8,0.0,0.0,0,992.4,3,5,8.1,85
"2018-01-18 03:42:00",9.2,6.8,0.0,0.0,0,992.5,4,7,7.5,85
"2018-01-18 03:43:00",9.2,6.8,0.0,0.0,0,992.5,5,10,6.8,85
"2018-01-18 03:44:00",9.2,6.8,0.0,0.0,0,992.4,4,6,7.7,85
"2018-01-18 03:45:00",9.2,6.8,0.0,0.0,0,992.6,3,8,7.2,85
"2018-01-18 03:46:00",9.2,6.8,0.0,0.0,0,992.6,4,8,7.2,85
"2018-01-18 03:47:00",9.2,6.8,0.0,0.0,0,992.6,2,3,"",85
"2018-01-18 03:48:00",9.2,6.8,0.0,0.0,0,992.6,2,4,8.4,85
"2018-01-18 03:49:00",9.2,6.8,0.0,0.0,0,992.6,4,5,8.1,85
"2018-01-18 03:50:00",9.2,6.8,0.0,0.0,0,992.6,4,8,7.2,85
"2018-01-18 03:51:00",9.2,6.8,0.0,0.0,0,992.5,4,9,7.0,85
"2018-01-18 03:52:00",9.2,6.8,0.0,0.0,0,992.6,2,4,8.4,85
"2018-01-18 03:53:00",9.2,6.8,0.0,0.0,0,992.5,6,11,6.6,85
"2018-01-18 03:54:00",9.2,6.8,0.0,0.0,0,992.4,7,9,7.0,85
"2018-01-18 03:55:00",9.2,6.8,0.0,0.0,0,992.5,4,8,7.2,85
"2018-01-18 03:56:00",9.2,6.8,0.0,0.0,0,992.5,4,11,6.6,85
"2018-01-18 03:57:00",9.2,6.8,0.0,0.0,0,992.6,7,13,6.3,85
"2018-01-18 03:58:00",9.2,6.8,0.0,0.0,0,992.3,6,12,6.4,85
"2018-01-18 03:59:00",9.2,6.8,0.0,0.0,0,992.4,3,6,7.7,85
"2018-01-18 04:00:00",9.2,6.8,0.0,0.0,0,992.5,3,5,8.1,85
"2018-01-18 04:01:00",9.2,6.8,0.0,0.0,0,992.6,4,10,6.8,85
"2018-01-18 04:02:00",9.2,6.6,0.0,0.0,0,992.6,7,12,6.4,84
"2018-01-18 04:03:00",9.2,6.6,0.0,0.0,0,992.6,6,11,6.6,84
"2018-01-18 04:04:00",9.2,6.6,0.0,0.0,0,992.6,6,13,6.3,84
"2018-01-18 04:05:00",9.2,6.6,0.0,0.0,0,992.7,3,4,8.4,84
"2018-01-18 04:06:00",9.2,6.6,0.0,0.0,0,992.7,7,11,6.6,84
"2018-01-18 04:07:00",9.2,6.6,0.0,0.0,0,992.7,5,8,7.2,84
"2018-01-18 04:08:00",9.2,6.6,0.0,0.0,0,992.8,5,7,7.5,84
"2018-01-18 04:09:00",9.3,6.7,0.0,0.0,0,992.6,5,9,7.0,84
"2018-01-18 04:10:00",9.3,6.7,0.0,0.0,0,992.6,4,8,7.3,84
"2018-01-18 04:11:00",9.3,6.7,0.0,0.0,0,992.7,5,13,6.4,84
"2018-01-18 04:12:00",9.3,6.7,0.0,0.0,0,992.7,4,6,7.9,84
"2018-01-18 04:13:00",9.3,6.7,0.0,0.0,0,992.8,5,9,7.1,84
"2018-01-18 04:14:00",9.3,6.7,0.0,0.0,0,992.8,4,7,7.6,84
"2018-01-18 04:15:00",9.3,6.7,0.0,0.0,0,992.9,4,9,7.1,84
"2018-01-18 04:16:00",9.3,6.7,0.0,0.0,0,993.0,5,9,7.1,84
"2018-01-18 04:17:00",9.3,6.7,0.0,0.0,0,993.0,4,9,7.1,84
"2018-01-18 04:18:00",9.3,6.7,0.0,0.0,0,993.2,4,7,7.6,84
"2018-01-18 04:19:00",9.3,6.7,0.0,0.0,0,993.1,3,4,8.6,84
"2018-01-18 04:20:00",9.3,6.7,0.0,0.0,0,993.6,6,10,6.9,84
"2018-01-18 04:21:00",9.3,6.7,0.0,0.0,0,993.4,3,6,7.9,84
"2018-01-18 04:22:00",9.3,6.7,0.0,0.0,0,993.4,5,9,7.1,84
"2018-01-18 04:23:00",9.3,6.7,0.0,0.0,0,993.3,3,5,8.2,84
"2018-01-18 04:24:00",9.3,6.7,0.0,0.0,0,993.4,2,4,8.6,84
"2018-01-18 04:25:00",9.3,6.6,0.0,0.0,0,993.5,2,6,7.9,83
"2018-01-18 04:26:00",9.3,6.6,0.0,0.0,0,993.5,4,5,8.2,83
"2018-01-18 04:27:00",9.3,6.6,0.0,0.0,0,993.6,5,10,6.9,83
"2018-01-18 04:28:00",9.3,6.6,0.0,0.0,0,993.5,5,10,6.9,83
"2018-01-18 04:29:00",9.2,6.5,0.0,0.0,0,993.3,5,10,6.9,83
"2018-01-18 04:30:00",9.2,6.5,0.0,0.0,0,993.5,3,5,8.1,83
"2018-01-18 04:31:00",9.2,6.5,0.0,0.0,0,993.5,8,14,6.1,83
"2018-01-18 04:32:00",9.2,6.3,0.0,0.0,0,993.4,6,11,6.6,82
"2018-01-18 04:33:00",9.1,6.2,0.0,0.0,0,993.7,7,16,5.7,82
"2018-01-18 04:34:00",9.1,6.2,0.0,0.0,0,993.8,11,21,5.1,82
"2018-01-18 04:35:00",9.1,6.0,0.0,0.0,0,993.6,5,10,6.7,81
"2018-01-18 04:36:00",9.1,6.0,0.0,0.0,0,993.6,5,10,6.7,81
"2018-01-18 04:37:00",9.0,5.9,0.0,0.0,0,993.4,6,8,7.0,81
"2018-01-18 04:38:00",9.0,5.9,0.0,0.0,0,993.5,6,10,6.5,81
"2018-01-18 04:39:00",9.0,5.9,0.0,0.0,0,993.7,5,9,6.7,81
"2018-01-18 04:40:00",9.0,5.9,0.0,0.0,0,993.6,3,5,7.8,81
"2018-01-18 04:41:00",8.9,5.8,0.0,0.0,0,993.6,3,7,7.1,81
"2018-01-18 04:42:00",8.9,5.6,0.0,0.0,0,993.8,5,8,6.8,80
"2018-01-18 04:43:00",8.9,5.6,0.0,0.0,0,993.6,5,7,7.1,80
"2018-01-18 04:44:00",8.9,5.6,0.0,0.0,0,993.7,6,13,5.9,80
"2018-01-18 04:45:00",8.9,5.6,0.0,0.0,0,993.8,2,3,"",80
"2018-01-18 04:46:00",8.9,5.6,0.0,0.0,0,993.9,4,7,7.1,80
"2018-01-18 04:47:00",8.9,5.6,0.0,0.0,0,993.9,3,6,7.4,80
"2018-01-18 04:48:00",8.9,5.6,0.0,0.0,0,994.0,4,12,6.1,80
"2018-01-18 04:49:00",8.8,5.5,0.0,0.0,0,994.0,8,11,6.2,80
"2018-01-18 04:50:00",8.8,5.5,0.0,0.0,0,994.0,8,15,5.5,80
"2018-01-18 04:51:00",8.8,5.5,0.0,0.0,0,994.0,4,7,7.0,80
"2018-01-18 04:52:00",8.8,5.5,0.0,0.0,0,994.2,7,15,5.5,80
"2018-01-18 04:53:00",8.8,5.4,0.0,0.0,0,993.9,8,17,5.2,79
"2018-01-18 04:54:00",8.8,5.4,0.0,0.0,0,994.2,6,10,6.3,79
"2018-01-18 04:55:00",8.8,5.5,0.0,0.0,0,994.1,5,9,6.5,80
"2018-01-18 04:56:00",8.8,5.4,0.0,0.0,0,994.1,8,16,5.3,79
"2018-01-18 04:57:00",8.8,5.4,0.0,0.0,0,994.4,5,9,6.5,79
"2018-01-18 04:58:00",8.8,5.4,0.0,0.0,0,994.4,4,6,7.3,79
"2018-01-18 04:59:00",8.8,5.4,0.0,0.0,0,994.2,6,10,6.3,79
"2018-01-18 05:00:00",8.7,5.3,0.0,0.0,0,994.3,9,12,5.8,79
"2018-01-18 05:01:00",8.7,5.3,0.0,0.0,0,994.3,8,13,5.6,79
"2018-01-18 05:02:00",8.7,5.3,0.0,0.0,0,994.4,7,11,6.0,79
"2018-01-18 05:03:00",8.7,5.3,0.0,0.0,0,994.4,4,6,7.1,79
"2018-01-18 05:04:00",8.7,5.3,0.0,0.0,0,994.3,5,12,5.8,79
"2018-01-18 05:05:00",8.7,5.3,0.0,0.0,0,994.6,5,11,6.0,79
"2018-01-18 05:06:00",8.7,5.3,0.0,0.0,0,994.5,4,12,5.8,79
"2018-01-18 05:07:00",8.7,5.3,0.0,0.0,0,994.5,5,8,6.6,79
"2018-01-18 05:08:00",8.7,5.3,0.0,0.0,0,994.5,3,5,7.5,79
"2018-01-18 05:09:00",8.7,5.3,0.0,0.0,0,994.7,5,12,5.8,79
"2018-01-18 05:10:00",8.6,5.2,0.0,0.0,0,994.5,4,7,6.9,79
"2018-01-18 05:11:00",8.6,5.2,0.0,0.0,0,994.6,5,19,4.7,79
"2018-01-18 05:12:00",8.6,5.2,0.0,0.0,0,994.7,7,10,6.0,79
"2018-01-18 05:13:00",8.6,5.2,0.0,0.0,0,994.9,5,13,5.5,79
"2018-01-18 05:14:00",8.6,5.2,0.0,0.0,0,994.8,5,10,6.0,79
"2018-01-18 05:15:00",8.6,5.2,0.0,0.0,0,994.6,6,12,5.7,79
"2018-01-18 05:16:00",8.6,5.2,0.0,0.0,0,994.8,7,12,5.7,79
"2018-01-18 05:17:00",8.5,5.1,0.0,0.0,0,994.7,4,7,6.6,79
"2018-01-18 05:18:00",8.5,5.1,0.0,0.0,0,994.8,3,6,6.9,79
"2018-01-18 05:19:00",8.5,5.1,0.0,0.0,0,994.9,4,7,6.6,79
"2018-01-18 05:20:00",8.5,5.1,0.0,0.0,0,995.0,5,11,5.7,79
"2018-01-18 05:21:00",8.4,5.0,0.0,0.0,0,995.2,6,10,5.9,79
"2018-01-18 05:22:00",8.4,5.0,0.0,0.0,0,995.2,7,13,5.3,79
"2018-01-18 05:23:00",8.4,5.0,0.0,0.0,0,995.2,4,6,6.8,79
"2018-01-18 05:24:00",8.4,5.0,0.0,0.0,0,995.2,3,6,6.8,79
"2018-01-18 05:25:00",8.4,5.0,0.0,0.0,0,995.4,5,9,6.0,79
"2018-01-18 05:26:00",8.4,5.0,0.0,0.0,0,995.3,3,7,6.5,79
"2018-01-18 05:27:00",8.4,5.0,0.0,0.0,0,995.2,5,9,6.0,79
"2018-01-18 05:28:00",8.3,4.9,0.0,0.0,0,995.3,3,6,6.7,79
"2018-01-18 05:29:00",8.3,4.9,0.0,0.0,0,995.2,6,9,5.9,79
"2018-01-18 05:30:00",8.3,4.9,0.0,0.0,0,995.3,4,8,6.1,79
"2018-01-18 05:31:00",8.3,4.9,0.0,0.0,0,995.5,4,7,6.4,79
"2018-01-18 05:32:00",8.3,4.9,0.0,0.0,0,995.3,5,8,6.1,79
"2018-01-18 05:33:00",8.3,4.9,0.0,0.0,0,995.4,6,9,5.9,79
"2018-01-18 05:34:00",8.3,4.9,0.0,0.0,0,995.5,4,12,5.3,79
"2018-01-18 05:35:00",8.2,4.8,0.0,0.0,0,995.4,5,10,5.6,79
"2018-01-18 05:36:00",8.2,4.8,0.0,0.0,0,995.5,4,7,6.3,79
"2018-01-18 05:37:00",8.2,4.8,0.0,0.0,0,995.5,2,3,"",79
"2018-01-18 05:38:00",8.2,4.8,0.0,0.0,0,995.7,6,8,6.0,79
"2018-01-18 05:39:00",8.2,4.8,0.0,0.0,0,995.6,5,9,5.8,79
"2018-01-18 05:40:00",8.2,4.8,0.0,0.0,0,995.6,5,8,6.0,79
"2018-01-18 05:41:00",8.2,4.8,0.0,0.0,0,995.8,4,7,6.3,79
"2018-01-18 05:42:00",8.1,4.7,0.0,0.0,0,995.9,7,15,4.7,79
"2018-01-18 05:43:00",8.1,4.7,0.0,0.0,0,995.8,3,7,6.1,79
"2018-01-18 05:44:00",8.1,4.7,0.0,0.0,0,995.8,4,8,6.0,79
"2018-01-18 05:45:00",8.1,4.7,0.0,0.0,0,995.8,2,4,7.2,79
"2018-01-18 05:46:00",8.1,4.7,0.0,0.0,0,995.8,3,4,7.2,79
"2018-01-18 05:47:00",8.1,4.7,0.0,0.0,0,996.1,5,9,5.6,79
"2018-01-18 05:48:00",8.1,4.9,0.0,0.0,0,996.0,4,10,5.4,80
"2018-01-18 05:49:00",8.0,4.8,0.0,0.0,0,996.0,4,9,5.6,80
"2018-01-18 05:50:00",7.9,4.7,0.0,0.0,0,996.1,6,15,4.4,80
"2018-01-18 05:51:00",7.9,4.7,0.0,0.0,0,996.0,7,11,5.0,80
"2018-01-18 05:52:00",7.9,4.7,0.0,0.0,0,996.0,3,7,5.9,80
"2018-01-18 05:53:00",7.9,4.7,0.0,0.0,0,996.0,5,8,5.6,80
"2018-01-18 05:54:00",7.9,4.7,0.0,0.0,0,996.1,5,10,5.2,80
"2018-01-18 05:55:00",7.8,4.6,0.0,0.0,0,996.1,3,7,5.8,80
"2018-01-18 05:56:00",7.8,4.4,0.0,0.0,0,996.2,5,9,5.3,79
"2018-01-18 05:57:00",7.8,4.4,0.0,0.0,0,996.2,5,7,5.8,79
"2018-01-18 05:58:00",7.8,4.4,0.0,0.0,0,996.2,4,6,6.1,79
"2018-01-18 05:59:00",7.8,4.4,0.0,0.0,0,996.4,3,4,6.8,79
"2018-01-18 06:00:00",7.8,4.4,0.0,0.0,0,996.3,4,9,5.3,79
"2018-01-18 06:01:00",7.8,4.4,0.0,0.0,0,996.5,3,6,6.1,79
"2018-01-18 06:02:00",7.7,4.3,0.0,0.0,0,996.4,4,11,4.7,79
"2018-01-18 06:03:00",7.7,4.3,0.0,0.0,0,996.4,6,12,4.5,79
"2018-01-18 06:04:00",7.7,4.3,0.0,0.0,0,996.6,3,5,6.3,79
"2018-01-18 06:05:00",7.7,4.3,0.0,0.0,0,996.5,3,4,6.7,79
"2018-01-18 06:06:00",7.7,4.3,0.0,0.0,0,996.6,3,4,6.7,79
"2018-01-18 06:07:00",7.6,4.2,0.0,0.0,0,996.5,3,6,6.0,79
"2018-01-18 06:08:00",7.6,4.2,0.0,0.0,0,996.5,3,6,5.8,79
"2018-01-18 06:09:00",7.6,4.2,0.0,0.0,0,996.6,3,6,5.8,79
"2018-01-18 06:10:00",7.6,4.4,0.0,0.0,0,996.6,2,4,6.6,80
"2018-01-18 06:11:00",7.6,4.4,0.0,0.0,0,996.6,4,6,5.8,80
"2018-01-18 06:12:00",7.6,4.4,0.0,0.0,0,996.7,5,9,5.0,80
"2018-01-18 06:13:00",7.5,4.3,0.0,0.0,0,996.8,3,5,6.2,80
"2018-01-18 06:14:00",7.5,4.3,0.0,0.0,0,996.6,4,9,4.9,80
"2018-01-18 06:15:00",7.4,4.2,0.0,0.0,0,996.9,6,12,4.3,80
"2018-01-18 06:16:00",7.4,4.2,0.0,0.0,0,996.9,4,8,5.0,80
"2018-01-18 06:17:00",7.4,4.2,0.0,0.0,0,996.9,3,6,5.6,80
"2018-01-18 06:18:00",7.4,4.2,0.0,0.0,0,997.0,2,4,6.4,80
"2018-01-18 06:19:00",7.4,4.2,0.0,0.0,0,997.0,3,5,5.9,80
"2018-01-18 06:20:00",7.4,4.2,0.0,0.0,0,997.1,2,3,"",80
"2018-01-18 06:21:00",7.3,4.1,0.0,0.0,0,997.0,2,4,6.2,80
"2018-01-18 06:22:00",7.3,4.1,0.0,0.0,0,997.2,2,3,"",80
"2018-01-18 06:23:00",7.3,4.1,0.0,0.0,0,997.2,3,5,5.8,80
"2018-01-18 06:24:00",7.3,4.1,0.0,0.0,0,997.3,3,6,5.5,80
"2018-01-18 06:25:00",7.3,4.1,0.0,0.0,0,997.2,1,2,"",80
"2018-01-18 06:26:00",7.3,4.1,0.0,0.0,0,997.3,3,8,4.9,80
"2018-01-18 06:27:00",7.2,4.0,0.0,0.0,0,997.3,6,11,4.2,80
"2018-01-18 06:28:00",7.2,4.0,0.0,0.0,0,997.4,3,6,5.4,80
"2018-01-18 06:29:00",7.2,4.0,0.0,0.0,0,997.4,2,4,6.1,80
"2018-01-18 06:30:00",7.2,4.0,0.0,0.0,0,997.4,3,6,5.4,80
"2018-01-18 06:31:00",7.2,4.0,0.0,0.0,0,997.4,4,7,5.0,80
"2018-01-18 06:32:00",7.2,4.0,0.0,0.0,0,997.4,4,5,5.7,80
"2018-01-18 06:33:00",7.1,3.9,0.0,0.0,0,997.5,4,7,4.9,80
"2018-01-18 06:34:00",7.1,3.9,0.0,0.0,0,997.6,2,3,"",80
"2018-01-18 06:35:00",7.1,3.9,0.0,0.0,0,997.7,2,4,6.0,80
"2018-01-18 06:36:00",7.1,3.9,0.0,0.0,0,997.7,2,4,6.0,80
"2018-01-18 06:37:00",7.1,3.9,0.0,0.0,0,997.7,3,4,6.0,80
"2018-01-18 06:38:00",7.0,3.8,0.0,0.0,0,997.7,3,7,4.9,80
"2018-01-18 06:39:00",7.0,3.8,0.0,0.0,0,997.7,2,3,"",80
"2018-01-18 06:40:00",7.0,3.8,0.0,0.0,0,997.7,2,6,5.1,80
"2018-01-18 06:41:00",6.9,3.7,0.0,0.0,0,997.7,4,8,4.4,80
"2018-01-18 06:42:00",6.9,3.5,0.0,0.0,0,997.7,3,8,4.4,79
"2018-01-18 06:43:00",6.9,3.5,0.0,0.0,0,997.8,3,7,4.7,79
"2018-01-18 06:44:00",6.9,3.5,0.0,0.0,0,997.8,7,9,4.2,79
"2018-01-18 06:45:00",6.9,3.5,0.0,0.0,0,997.7,4,9,4.2,79
"2018-01-18 06:46:00",6.8,3.4,0.0,0.0,0,997.7,4,7,4.6,79
"2018-01-18 06:47:00",6.8,3.4,0.0,0.0,0,997.8,5,10,3.8,79
"2018-01-18 06:48:00",6.8,3.4,0.0,0.0,0,997.9,3,6,4.9,79
"2018-01-18 06:49:00",6.8,3.4,0.0,0.0,0,997.8,3,4,5.7,79
"2018-01-18 06:50:00",6.8,3.4,0.0,0.0,0,998.0,2,3,"",79
"2018-01-18 06:51:00",6.8,3.4,0.0,0.0,0,998.0,2,4,5.7,79
"2018-01-18 06:52:00",6.8,3.4,0.0,0.0,0,998.0,2,5,5.2,79
"2018-01-18 06:53:00",6.8,3.4,0.0,0.0,0,998.1,2,5,5.2,79
"2018-01-18 06:54:00",6.7,3.3,0.0,0.0,0,998.1,3,5,5.1,79
"2018-01-18 06:55:00",6.7,3.3,0.0,0.0,0,998.2,2,4,5.5,79
"2018-01-18 06:56:00",6.7,3.3,0.0,0.0,0,998.3,3,6,4.8,79